Ocala, FL

7:23 AM EDT on April 24, 2018 (GMT -0400)
Ocala Regional-Taylor

Weather History for KOCF - September, 2014

Change the Weather History Date:

Thursday, September 4, 2014

  Actual Average Record
Temperature  
Mean Temperature 80 °F -  
Max Temperature 91 °F 86 °F 95 °F (1999)
Min Temperature 69 °F 69 °F 66 °F (1999)
Cooling Degree Days 15    
Growing Degree Days 30 (Base 50)    
Moisture  
Dew Point 70 °F    
Average Humidity 82    
Maximum Humidity 94    
Minimum Humidity 49    
Precipitation  
Precipitation 0.00 in - - ()
Sea Level Pressure  
Sea Level Pressure 30.08 in    
Wind  
Wind Speed 1 mph (ESE)    
Max Wind Speed 7 mph    
Max Gust Speed -    
Visibility 10 miles    
Events      
Averages and records for this station are not official NWS values.
T = Trace of Precipitation, MM = Missing Value Source: NWS Daily Summary

Daily Weather History Graph

Daily Weather History Graph

Search for Another Location

Airport or City:

Astronomy

Sep. 04, 2014 Rise Set
Actual Time 7:08 AM EDT 7:47 PM EDT
Civil Twilight 6:44 AM EDT 8:11 PM EDT
Nautical Twilight 6:15 AM EDT 8:39 PM EDT
Astronomical Twilight 5:46 AM EDT 9:08 PM EDT
Moon 4:10 PM EDT (9/4) 2:12 AM EDT (9/4)
Length of Visible Light 13h 27m
Length of Day
12h 39m
Waxing Gibbous, 74% of the Moon is Illuminated
Sep 4
Waxing Gibbous
Sep 8
Full
Sep 15
Last Quarter
Sep 24
New
Oct 1
First Quarter

Hourly Weather History & Observations

Time (EDT) Temp. Heat Index Dew Point Humidity Pressure Visibility Wind Dir Wind Speed Gust Speed Precip Events Conditions
12:15 AM 77.0 °F - 69.8 °F 78% 30.09 in 6.0 mi Calm Calm - N/A   Clear
12:35 AM 75.2 °F - 69.8 °F 83% 30.08 in 10.0 mi Calm Calm - N/A   Clear
12:55 AM 75.2 °F - 69.8 °F 83% 30.08 in 10.0 mi Calm Calm - N/A   Clear
1:15 AM 73.4 °F - 69.8 °F 88% 30.08 in 10.0 mi Calm Calm - N/A   Clear
1:35 AM 73.4 °F - 69.8 °F 88% 30.07 in 10.0 mi Calm Calm - N/A   Clear
1:55 AM 73.4 °F - 69.8 °F 88% 30.07 in 10.0 mi Calm Calm - N/A   Clear
2:15 AM 73.4 °F - 69.8 °F 88% 30.06 in 10.0 mi ENE 3.5 mph - N/A   Clear
2:35 AM 73.4 °F - 69.8 °F 88% 30.06 in 10.0 mi Calm Calm - N/A   Clear
2:55 AM 73.4 °F - 69.8 °F 88% 30.06 in 10.0 mi Calm Calm - N/A   Clear
3:15 AM 73.4 °F - 69.8 °F 88% 30.05 in 10.0 mi East 3.5 mph - N/A   Clear
3:35 AM 73.4 °F - 69.8 °F 88% 30.05 in 10.0 mi Calm Calm - N/A   Clear
3:55 AM 73.4 °F - 69.8 °F 88% 30.05 in 10.0 mi Calm Calm - N/A   Clear
4:15 AM 73.4 °F - 69.8 °F 88% 30.05 in 10.0 mi Calm Calm - N/A   Clear
4:35 AM 71.6 °F - 69.8 °F 94% 30.05 in 10.0 mi Calm Calm - N/A   Clear
4:55 AM 71.6 °F - 69.8 °F 94% 30.05 in 10.0 mi Calm Calm - N/A   Clear
5:15 AM 71.6 °F - 69.8 °F 94% 30.05 in 10.0 mi Calm Calm - N/A   Clear
5:35 AM 71.6 °F - 69.8 °F 94% 30.06 in 10.0 mi Calm Calm - N/A   Clear
5:55 AM 71.6 °F - 69.8 °F 94% 30.06 in 10.0 mi Calm Calm - N/A   Clear
6:15 AM 71.6 °F - 69.8 °F 94% 30.07 in 10.0 mi Calm Calm - N/A   Clear
6:35 AM 71.6 °F - 69.8 °F 94% 30.07 in 10.0 mi Calm Calm - N/A   Clear
6:50 AM 69.8 °F - 68.0 °F 94% 30.07 in 10.0 mi Calm Calm - N/A   Clear
7:50 AM 69.8 °F - 68.0 °F 94% 30.08 in 10.0 mi Calm Calm - N/A   Clear
8:50 AM 77.0 °F - 73.4 °F 89% 30.09 in 10.0 mi Calm Calm - N/A   Clear
9:50 AM 82.4 °F 87.2 °F 71.6 °F 70% 30.09 in 10.0 mi Calm Calm - N/A   Partly Cloudy
10:50 AM 86.0 °F 91.8 °F 71.6 °F 62% 30.10 in 10.0 mi East 3.5 mph - N/A   Partly Cloudy
11:50 AM 87.8 °F 93.8 °F 71.6 °F 58% 30.10 in 10.0 mi East 4.6 mph - N/A   Partly Cloudy
12:50 PM 87.8 °F 91.4 °F 68.0 °F 52% 30.09 in 10.0 mi East 3.5 mph - N/A   Mostly Cloudy
1:50 PM 89.6 °F 94.7 °F 69.8 °F 52% 30.08 in 10.0 mi East 6.9 mph - N/A   Scattered Clouds
2:50 PM 91.4 °F 96.8 °F 69.8 °F 49% 30.05 in 10.0 mi ENE 3.5 mph - N/A   Mostly Cloudy
3:50 PM 87.8 °F 93.8 °F 71.6 °F 58% 30.04 in 10.0 mi ENE 6.9 mph - N/A   Mostly Cloudy
4:50 PM 84.2 °F 90.9 °F 73.4 °F 70% 30.03 in 10.0 mi ENE 6.9 mph - N/A   Scattered Clouds
5:50 PM 84.2 °F 89.6 °F 71.6 °F 66% 30.06 in 10.0 mi Calm Calm - N/A   Mostly Cloudy
6:50 PM 80.6 °F 83.9 °F 69.8 °F 70% 30.07 in 10.0 mi SSW 6.9 mph - N/A   Mostly Cloudy
7:55 PM 77.0 °F - 69.8 °F 78% 30.07 in 10.0 mi South 3.5 mph - N/A   Clear
8:15 PM 75.2 °F - 71.6 °F 89% 30.07 in 10.0 mi SSE 3.5 mph - N/A   Clear
8:35 PM 75.2 °F - 71.6 °F 89% 30.08 in 10.0 mi Calm Calm - N/A   Clear
8:55 PM 75.2 °F - 71.6 °F 89% 30.09 in 10.0 mi Calm Calm - N/A   Clear
9:15 PM 75.2 °F - 71.6 °F 89% 30.10 in 10.0 mi South 3.5 mph - N/A   Clear
9:35 PM 75.2 °F - 71.6 °F 89% 30.10 in 10.0 mi Calm Calm - N/A   Clear
10:15 PM 75.2 °F - 71.6 °F 89% 30.11 in 10.0 mi SSE 3.5 mph - N/A   Clear
10:35 PM 75.2 °F - 69.8 °F 83% 30.11 in 10.0 mi Calm Calm - N/A   Clear
10:55 PM 75.2 °F - 69.8 °F 83% 30.12 in 10.0 mi Calm Calm - N/A   Clear
11:15 PM 73.4 °F - 69.8 °F 88% 30.12 in 10.0 mi Calm Calm - N/A   Clear
11:35 PM 73.4 °F - 69.8 °F 88% 30.12 in 10.0 mi Calm Calm - N/A   Clear
11:55 PM 73.4 °F - 69.8 °F 88% 30.12 in 10.0 mi Calm Calm - N/A   Clear